| time (UTC) | temp F | wind direction | speed MPH | gust MPH | rain 1hr in | rain 24hr in | rain mn in | humidity % | barometer mb |
| 20260503184605 | 80 | 261 | 7.0 | 18.0 | 0.00 | 0.00 | 0.00 | 48 | 1019.1 |
| 20260503183052 | 79 | 219 | 10.0 | 15.0 | 0.00 | 0.00 | 0.00 | 49 | 1019.4 |
| 20260503181548 | 78 | 254 | 9.0 | 18.0 | 0.00 | 0.00 | 0.00 | 49 | 1019.6 |
| 20260503180042 | 78 | 241 | 9.0 | 21.0 | 0.00 | 0.00 | 0.00 | 51 | 1019.9 |
| 20260503174541 | 78 | 273 | 8.0 | 21.0 | 0.00 | 0.00 | 0.00 | 52 | 1020.1 |
| 20260503173038 | 77 | 241 | 10.0 | 15.0 | 0.00 | 0.00 | 0.00 | 53 | 1020.4 |
| 20260503171549 | 76 | 253 | 7.0 | 19.0 | 0.00 | 0.00 | 0.00 | 55 | 1020.6 |
| 20260503081509 | 53 | 179 | 0.0 | 2.0 | 0.00 | 0.00 | 0.00 | 72 | 1019.7 |
| 20260503071505 | 55 | 179 | 1.0 | 3.0 | 0.00 | 0.00 | 0.00 | 70 | 1019.8 |
| 20260503054559 | 57 | 180 | 1.0 | 2.0 | 0.00 | 0.00 | 0.00 | 66 | 1019.7 |
| 20260503053049 | 57 | 180 | 2.0 | 4.0 | 0.00 | 0.00 | 0.00 | 65 | 1019.7 |
| 20260503051547 | 57 | 180 | 2.0 | 4.0 | 0.00 | 0.00 | 0.00 | 65 | 1019.6 |
| 20260503050047 | 58 | 178 | 2.0 | 4.0 | 0.00 | 0.00 | 0.00 | 64 | 1019.6 |
| 20260503044551 | 58 | 178 | 3.0 | 4.0 | 0.00 | 0.00 | 0.00 | 64 | 1019.6 |
| 20260503043047 | 59 | 174 | 2.0 | 4.0 | 0.00 | 0.00 | 0.00 | 64 | 1019.7 |
| 20260503041546 | 60 | 165 | 4.0 | 6.0 | 0.00 | 0.00 | 0.00 | 61 | 1019.5 |
| 20260503040042 | 60 | 169 | 1.0 | 3.0 | 0.00 | 0.00 | 0.00 | 61 | 1019.5 |
| 20260503034540 | 61 | 168 | 2.0 | 4.0 | 0.00 | 0.00 | 0.00 | 60 | 1019.6 |
| 20260503033039 | 61 | 163 | 3.0 | 5.0 | 0.00 | 0.00 | 0.00 | 59 | 1019.5 |
| 20260503031540 | 62 | 156 | 1.0 | 4.0 | 0.00 | 0.00 | 0.00 | 58 | 1019.5 |
| 20260503030039 | 62 | 126 | 3.0 | 4.0 | 0.00 | 0.00 | 0.00 | 59 | 1019.5 |
| 20260503024538 | 63 | 118 | 1.0 | 3.0 | 0.00 | 0.00 | 0.00 | 55 | 1019.3 |
| 20260503023041 | 64 | 118 | 1.0 | 3.0 | 0.00 | 0.00 | 0.00 | 54 | 1019.2 |
| 20260503021542 | 66 | 22 | 0.0 | 1.0 | 0.00 | 0.00 | 0.00 | 52 | 1019.1 |
| 20260503020041 | 67 | 9 | 0.0 | 0.0 | 0.00 | 0.00 | 0.00 | 50 | 1018.9 |
| 20260503014537 | 68 | 9 | 0.0 | 0.0 | 0.00 | 0.00 | 0.00 | 49 | 1018.7 |
| 20260503013038 | 70 | 9 | 0.0 | 0.0 | 0.00 | 0.00 | 0.00 | 49 | 1018.7 |
| 20260503011546 | 71 | 9 | 0.0 | 0.0 | 0.00 | 0.00 | 0.00 | 48 | 1018.5 |
| 20260503010039 | 72 | 9 | 0.0 | 0.0 | 0.00 | 0.00 | 0.00 | 47 | 1018.4 |
| 20260503004535 | 73 | 9 | 0.0 | 0.0 | 0.00 | 0.00 | 0.00 | 46 | 1018.2 |
| 20260503003034 | 75 | 9 | 0.0 | 2.0 | 0.00 | 0.00 | 0.00 | 45 | 1018.2 |
| 20260503001533 | 76 | 9 | 0.0 | 4.0 | 0.00 | 0.00 | 0.00 | 45 | 1018.2 |
| 20260503000042 | 76 | 347 | 1.0 | 6.0 | 0.00 | 0.00 | 0.00 | 46 | 1018.1 |
| 20260502234525 | 76 | 43 | 3.0 | 10.0 | 0.00 | 0.00 | 0.00 | 44 | 1018.2 |
| 20260502233020 | 76 | 31 | 3.0 | 10.0 | 0.00 | 0.00 | 0.00 | 44 | 1018.3 |
| 20260502231518 | 76 | 9 | 4.0 | 10.0 | 0.00 | 0.00 | 0.00 | 44 | 1018.2 |
| 20260502230017 | 76 | 336 | 5.0 | 14.0 | 0.00 | 0.00 | 0.00 | 44 | 1018.4 |
| 20260502224517 | 77 | 306 | 1.0 | 11.0 | 0.00 | 0.00 | 0.00 | 46 | 1018.5 |
| 20260502223024 | 76 | 269 | 3.0 | 13.0 | 0.00 | 0.00 | 0.00 | 46 | 1018.4 |
| 20260502221505 | 76 | 309 | 4.0 | 10.0 | 0.00 | 0.00 | 0.00 | 46 | 1018.4 |
| 20260502220001 | 76 | 333 | 6.0 | 12.0 | 0.00 | 0.00 | 0.00 | 45 | 1018.5 |
| 20260502214558 | 76 | 39 | 5.0 | 14.0 | 0.00 | 0.00 | 0.00 | 46 | 1018.6 |
| 20260502213056 | 76 | 114 | 0.0 | 13.0 | 0.00 | 0.00 | 0.00 | 47 | 1018.7 |
| 20260502211555 | 76 | 284 | 6.0 | 15.0 | 0.00 | 0.00 | 0.00 | 47 | 1018.9 |
| 20260502210108 | 76 | 266 | 6.0 | 14.0 | 0.00 | 0.00 | 0.00 | 47 | 1018.9 |
| 20260502204551 | 76 | 256 | 3.0 | 13.0 | 0.00 | 0.00 | 0.00 | 49 | 1019.3 |
| 20260502203050 | 75 | 355 | 6.0 | 12.0 | 0.00 | 0.00 | 0.00 | 48 | 1019.3 |
| 20260502201551 | 75 | 47 | 9.0 | 15.0 | 0.00 | 0.00 | 0.00 | 48 | 1019.4 |
| 20260502200105 | 75 | 68 | 5.0 | 12.0 | 0.00 | 0.00 | 0.00 | 48 | 1019.6 |
| 20260502194546 | 75 | 39 | 7.0 | 11.0 | 0.00 | 0.00 | 0.00 | 49 | 1019.9 |
| 20260502193047 | 75 | 310 | 6.0 | 16.0 | 0.00 | 0.00 | 0.00 | 47 | 1020.0 |
| 20260502191555 | 74 | 63 | 4.0 | 12.0 | 0.00 | 0.00 | 0.00 | 50 | 1020.2 |
| 20260502190048 | 74 | 351 | 8.0 | 18.0 | 0.00 | 0.00 | 0.00 | 51 | 1020.3 |